Regional Weather Roundup
Issued by NWS

Home | Current Version | Previous Version | Text Only | Print | Product List | Glossary On
Versions: 1 2 3 4 5 6 7 8 9 10 11 12 13 14 15 16 17 18 19 20 21 22 23 24 25 26 27 28 29 30 31 32 33 34 35 36 37 38 39 40 41 42 43 44 45 46 47 48 49 50
000
ASUS43 KBIS 171520
RWRND

NORTH DAKOTA REGIONAL WEATHER ROUNDUP
NATIONAL WEATHER SERVICE BISMARCK ND
1000 AM CDT THU APR 17 2014

NOTE: "FAIR" INDICATES FEW OR NO CLOUDS BELOW 12,000 FEET WITH NO
SIGNIFICANT WEATHER AND/OR OBSTRUCTIONS TO VISIBILITY.


NDZ001>003-009>011-017-171600-
NORTHWEST NORTH DAKOTA

CITY           SKY/WX    TMP DP  RH WIND       PRES   REMARKS
WILLISTON      CLOUDY    29  22  75 SE17      30.19F WCI  17
MINOT          CLOUDY    27  13  55 E9        30.29F WCI  18
MINOT AFB      CLOUDY    26  14  60 SE8       30.29F WCI  18
$$

NDZ018>021-031>035-040>046-171600-
SOUTHWEST NORTH DAKOTA

CITY           SKY/WX    TMP DP  RH WIND       PRES   REMARKS
BISMARCK       CLOUDY    29  15  56 SE8       30.31F
DICKINSON      MOSUNNY   32  21  64 SE22G28   30.15F WCI  19
GARRISON         N/A     28  16  60 SE9       30.27F WCI  19
HETTINGER ARPT LGT SNOW  28  24  85 SE14      30.18F FOG     WCI  17
$$

NDZ004>008-012>016-024-026-027-054-171600-
NORTHEAST NORTH DAKOTA

CITY           SKY/WX    TMP DP  RH WIND       PRES   REMARKS
GRAND FORKS    SUNNY     30  19  63 NW5       30.37S
GRND FRKS AFB  SUNNY     31  17  56 N7        30.37S
DEVILS LAKE    SUNNY     28  10  47 SE5       30.33S
$$

NDZ022-023-025-028>030-036>039-047>053-171600-
SOUTHEAST NORTH DAKOTA

CITY           SKY/WX    TMP DP  RH WIND       PRES   REMARKS
FARGO          SUNNY     33  18  53 N7        30.35S
JAMESTOWN      SUNNY     30  17  58 E5        30.32F
$$




USA.gov is the U.S. government's official web portal to all federal, state and local government web resources and services.